[[{"header":{"parameterUnit":"m.s-1","parameterCategory":1,"la1":30.2991,"la2":30.254,"lo1":-89.0895,"lo2":-89.0444,"dy":0.0017,"dx":0.0017,"nx":28,"ny":28,"refTime":"2024-12-04T03:00:00:Z","depth":0,"parameterNumber":2,"parameterNumberName":"U-component_of_WINDS"},"data":[0,0,0,0,0,0,0,0,0,0,0,0,0,0,0,0,0,0,0,0,0,0,0,0,0,0,0,0,0,0,0,0,0,0,0,0,0,0,0,0,0,0,0,0,0,0,0,0,0,0,0,0,0,0,0,0,0,0,4.6687,4.6688,0,4.6749,4.675,4.675,4.6704,4.6702,4.67,4.6698,4.6763,4.6766,4.677,0,0,0,0,0,0,0,0,0,0,0,0,0,4.653,4.6533,4.6687,4.6688,4.6688,4.6749,4.675,4.675,4.6705,4.6702,4.67,4.6697,4.6761,4.6766,4.677,0,0,0,0,0,0,0,0,0,0,0,0,0,4.6596,4.6534,4.6687,4.6673,4.6672,4.6749,4.675,4.6751,4.6705,4.6702,4.6699,4.6696,4.676,4.6765,4.6771,4.6864,0,0,4.6787,4.6789,0,0,0,0,0,0,0,0,4.6592,4.6601,4.6674,4.6674,4.6673,4.6716,4.6718,4.6789,4.6706,4.6693,4.6698,4.6695,4.675,4.6756,4.6774,4.6867,4.687,4.6788,4.6791,4.6793,4.6795,0,0,0,0,0,0,0,4.6587,4.6598,4.6711,4.6675,4.6675,4.6664,4.667,4.6731,4.6737,4.6694,4.669,4.6698,4.6749,4.6769,4.6775,4.6871,4.6787,4.6792,4.6796,4.6798,4.7044,4.7047,0,0,0,0,0,0,4.6584,4.6595,4.6709,4.6713,4.6624,4.6669,4.6676,4.6705,4.6736,4.6738,4.6701,4.6696,4.6761,4.6769,4.6777,4.6888,4.6793,4.6798,4.6801,4.7041,4.7045,4.7049,0,0,0,0,0,0,4.6581,4.6595,4.6707,4.6653,4.6667,4.6675,4.6708,4.6708,4.6728,4.6742,4.6743,4.672,4.6759,4.677,4.6843,4.689,4.6801,4.6805,4.7037,4.7042,4.7047,4.7112,0,0,0,0,0,0,4.6577,4.6594,4.6629,4.6654,4.667,4.6771,4.6711,4.6711,4.6737,4.6731,4.676,4.6762,4.6757,4.6835,4.6848,4.6896,4.681,4.7033,4.7039,4.7045,4.7105,4.7118,4.7129,0,0,0,0,0,4.6571,4.6645,4.6631,4.6645,4.6714,4.6774,4.6783,4.6776,4.6741,4.6777,4.6786,4.6761,4.6883,4.6843,4.6857,4.6907,4.703,4.7038,4.7045,4.71,4.7116,4.7129,0,0,0,0,0,0,4.6626,4.6648,4.6633,4.6718,4.6744,4.6766,4.6811,4.6793,4.683,4.6823,4.6813,4.682,4.6897,4.6909,4.6865,4.6999,4.6951,4.6962,4.6988,4.7003,4.7015,4.7009,4.6814,0,0,0,0,0,4.6647,4.6694,4.6712,4.6785,4.6799,4.6803,4.6829,4.6821,4.6848,4.6859,4.6874,4.6902,4.6946,4.6975,4.7017,4.7107,4.7113,4.7149,4.7161,4.7171,4.718,4.7228,4.7244,4.7073,4.7073,4.7073,0,0,4.6693,4.6711,4.6741,4.6796,4.6816,4.6864,4.6813,4.6866,4.6902,4.6868,4.6937,4.6949,4.698,4.7062,4.7098,4.7075,4.7228,4.718,4.7188,4.7191,4.7237,4.7253,4.7267,4.7078,4.7077,4.7076,0,0,4.68,4.6819,4.6882,4.6903,4.6933,4.6936,4.6951,4.6976,4.6982,4.7052,4.7027,4.707,4.7147,4.7169,4.7191,4.7308,4.7286,4.7322,4.7384,4.7431,4.7444,4.7456,4.7497,4.7512,4.7331,4.7331,4.7331,0,4.6853,4.6925,4.6916,4.6972,4.6996,4.6967,4.7031,4.7052,4.7095,4.7112,4.7085,4.7181,4.7199,4.7286,4.7314,4.7333,4.735,4.7318,4.7443,4.7455,4.7466,4.7504,4.752,4.7335,4.7335,4.7334,4.7334,0,4.6987,4.7038,4.7085,4.7126,4.7157,4.7216,4.7216,4.7248,4.7238,4.7244,4.7315,4.7336,4.7382,4.7402,4.7393,4.7488,4.7472,4.7444,4.7395,4.7486,4.7522,4.7537,4.7341,4.734,4.7338,4.7337,0,0,4.7129,4.7166,4.7183,4.7202,4.7234,4.7273,4.7331,4.7375,4.7402,4.7433,4.7481,4.7547,4.7522,4.7546,4.754,4.7581,4.7671,4.7549,4.7549,4.757,4.7776,4.7795,4.7813,4.7658,4.7661,4.7663,4.7773,0,4.7237,4.7338,4.7332,4.7427,4.7473,4.7447,4.7497,4.7523,4.753,4.757,4.7578,4.7624,4.7588,4.7602,4.7642,4.7652,4.7713,4.7644,4.7702,4.7704,4.7694,4.7832,4.7853,4.7955,4.7787,4.779,4.7791,0,4.7376,4.7412,4.7511,4.7536,4.7555,4.7601,4.764,4.768,4.7708,4.771,4.7738,4.7725,4.7783,4.7734,4.7815,4.7768,4.7792,4.78,4.7804,4.7808,4.7752,4.7838,4.7988,4.8003,4.7814,4.7812,4.781,0,4.7468,4.7541,4.7609,4.7626,4.7658,4.769,4.7705,4.773,4.7757,4.7792,4.781,4.7852,4.7874,4.7907,4.7906,4.787,4.7987,4.7938,4.799,4.799,4.8015,4.8013,4.8169,4.8033,4.8032,4.8032,4.8032,0,4.7589,4.765,4.7651,4.7693,4.7761,4.7755,4.7822,4.7833,4.7856,4.79,4.7881,4.7922,4.7918,4.796,4.796,4.8026,4.8037,4.804,4.8039,4.8041,4.8041,4.8055,4.8048,4.8036,4.8035,4.8034,4.8034,0,4.7702,4.7706,4.7778,4.7802,4.781,4.7859,4.7879,4.7919,4.7925,4.798,4.7993,4.8002,4.8051,4.8053,4.8109,4.8108,4.8189,4.818,4.8179,4.8177,4.8228,4.8223,4.8398,4.842,4.8271,4.8273,4.8274,0,4.7778,4.7824,4.7853,4.7881,4.7898,4.7943,4.797,4.7966,4.7995,4.8032,4.8067,4.8114,4.815,4.8229,4.8241,4.8283,4.8275,4.8334,4.8281,4.8282,4.8274,4.8271,4.8275,4.8343,4.8345,4.8346,4.8347,0,4.7911,4.7911,4.7951,4.7992,4.8025,4.8057,4.8087,4.8111,4.811,4.8144,4.8193,4.8222,4.8279,4.8325,4.8367,4.8382,4.8365,4.8364,4.8378,4.838,4.8377,4.8378,4.8205,4.836,4.8358,4.8358,4.8357,4.8356,4.8007,4.8047,4.8074,4.8119,4.8141,4.817,4.8208,4.8219,4.826,4.8305,4.8301,4.8355,4.8383,4.8437,4.8456,4.8498,4.8478,4.8499,4.8504,4.8509,4.8514,4.8371,4.8506,4.8506,4.8505,4.8505,4.8505,0,4.8139,4.8155,4.8197,4.8239,4.8275,4.8256,4.8288,4.8319,4.8367,4.8394,4.8431,4.8487,4.8532,4.8548,4.8592,4.8623,4.8616,4.8634,4.8631,4.8635,4.853,4.8512,4.8639,4.8639,4.8639,4.8639,4.8639,4.8639,4.8211,4.8277,4.828,4.8358,4.8373,4.8426,4.8446,4.8472,4.8494,4.8558,4.8595,4.8605,4.8627,4.8673,4.8713,4.8717,4.8733,4.8755,4.8755,4.8656,4.8642,4.8629,4.8613,4.8759,4.8759,4.8856,4.8857,4.8857]},{"header":{"parameterUnit":"m.s-1","parameterCategory":1,"la1":30.2991,"la2":30.254,"lo1":-89.0895,"lo2":-89.0444,"dy":0.0017,"dx":0.0017,"nx":28,"ny":28,"refTime":"2024-12-04T03:00:00:Z","depth":0,"parameterNumber":3,"parameterNumberName":"V-component_of_WINDS"},"data":[0,0,0,0,0,0,0,0,0,0,0,0,0,0,0,0,0,0,0,0,0,0,0,0,0,0,0,0,0,0,0,0,0,0,0,0,0,0,0,0,0,0,0,0,0,0,0,0,0,0,0,0,0,0,0,0,0,0,4.5163,4.5165,0,4.5405,4.5408,4.5411,4.5421,4.5418,4.5415,4.5412,4.5662,4.5671,4.568,0,0,0,0,0,0,0,0,0,0,0,0,0,4.4708,4.4716,4.5162,4.5166,4.5169,4.5405,4.5408,4.5412,4.5421,4.5418,4.5414,4.5411,4.5659,4.567,4.5681,0,0,0,0,0,0,0,0,0,0,0,0,0,4.4923,4.4719,4.5162,4.5202,4.5208,4.5404,4.5408,4.5412,4.5422,4.5418,4.5413,4.5409,4.5655,4.5669,4.5683,4.5856,0,0,4.5725,4.5731,0,0,0,0,0,0,0,0,4.4911,4.494,4.5193,4.52,4.5207,4.5378,4.5339,4.5561,4.5423,4.5341,4.5412,4.5407,4.5571,4.5592,4.5647,4.5867,4.5878,4.5727,4.5735,4.5741,4.5745,0,0,0,0,0,0,0,4.4896,4.4929,4.5259,4.5197,4.5205,4.5208,4.5234,4.5381,4.5477,4.5348,4.5349,4.5378,4.5574,4.5633,4.5653,4.5882,4.5726,4.5739,4.5747,4.5753,4.6255,4.626,0,0,0,0,0,0,4.4873,4.4917,4.5251,4.5266,4.5045,4.5219,4.5248,4.5328,4.5476,4.5494,4.5381,4.5377,4.5611,4.5636,4.5662,4.5873,4.5741,4.5754,4.5762,4.625,4.6256,4.6262,0,0,0,0,0,0,4.4863,4.4903,4.5241,4.5092,4.5135,4.5232,4.5321,4.5335,4.5394,4.5501,4.5518,4.5424,4.5609,4.5642,4.5807,4.5882,4.576,4.5773,4.6245,4.6252,4.6259,4.6298,0,0,0,0,0,0,4.485,4.4899,4.4966,4.5093,4.5143,4.5383,4.5326,4.5343,4.5418,4.5415,4.5546,4.5563,4.5608,4.5786,4.5821,4.5899,4.5784,4.6238,4.6248,4.6257,4.6291,4.6306,4.6319,0,0,0,0,0,4.4834,4.4968,4.4969,4.501,4.5229,4.5387,4.5415,4.5464,4.5424,4.5492,4.556,4.5559,4.5868,4.5803,4.5842,4.5926,4.6234,4.6245,4.6256,4.6284,4.6303,4.6319,0,0,0,0,0,0,4.4848,4.4985,4.4989,4.5168,4.5266,4.5388,4.5476,4.5483,4.5594,4.5587,4.5643,4.5672,4.5836,4.5898,4.5822,4.61,4.6046,4.6066,4.6054,4.6073,4.6087,4.6069,4.5796,0,0,0,0,0,4.4871,4.4988,4.5102,4.525,4.5298,4.5378,4.5449,4.5478,4.5582,4.5623,4.5704,4.5805,4.5924,4.6002,4.6118,4.63,4.6328,4.6376,4.6391,4.6402,4.6418,4.6517,4.654,4.6298,4.6298,4.6298,0,0,4.4922,4.5012,4.5082,4.5255,4.5334,4.5453,4.5413,4.5542,4.5631,4.5643,4.5804,4.5866,4.5982,4.6156,4.6236,4.6212,4.6491,4.6416,4.6424,4.6435,4.6531,4.6554,4.6574,4.6306,4.6304,4.6303,0,0,4.5075,4.5155,4.5286,4.5366,4.5486,4.5538,4.5569,4.5691,4.5733,4.5895,4.5906,4.6013,4.6218,4.63,4.6369,4.6551,4.6554,4.6588,4.6662,4.6758,4.6778,4.6795,4.6859,4.6882,4.6603,4.6604,4.6604,0,4.5123,4.5304,4.5352,4.5481,4.5556,4.5571,4.5704,4.5779,4.5931,4.5983,4.5953,4.621,4.629,4.6482,4.6526,4.6582,4.6619,4.6573,4.6771,4.6789,4.6805,4.6867,4.6892,4.6607,4.6606,4.6606,4.6606,0,4.5356,4.5481,4.5572,4.5718,4.5803,4.5933,4.6001,4.6082,4.6103,4.6158,4.6322,4.6418,4.6553,4.6601,4.6623,4.6797,4.6778,4.6759,4.6706,4.6831,4.689,4.6914,4.6611,4.661,4.6609,4.6608,0,0,4.5525,4.5695,4.5728,4.5794,4.5927,4.6024,4.6154,4.6286,4.6354,4.6458,4.6568,4.6741,4.6724,4.6802,4.6833,4.6918,4.7055,4.6889,4.6892,4.6916,4.7251,4.7264,4.7291,4.7058,4.7063,4.7066,4.7241,0,4.5692,4.5924,4.5971,4.6172,4.6288,4.6303,4.6417,4.651,4.6565,4.6671,4.6732,4.6853,4.6822,4.6869,4.6953,4.7021,4.7123,4.7009,4.7161,4.7165,4.7131,4.7322,4.7337,4.7497,4.7265,4.7269,4.7272,0,4.5919,4.6027,4.6239,4.6356,4.6406,4.6507,4.6631,4.6733,4.6839,4.6873,4.6959,4.6981,4.7116,4.7056,4.7243,4.7164,4.7229,4.7272,4.7279,4.7295,4.7226,4.7343,4.755,4.7574,4.7309,4.7306,4.7303,0,4.602,4.6219,4.6372,4.6427,4.6568,4.6638,4.67,4.6802,4.6878,4.6986,4.7036,4.7158,4.7226,4.732,4.7374,4.7326,4.7557,4.7502,4.7589,4.7587,4.7637,4.7633,4.7857,4.7679,4.7679,4.7678,4.7678,0,4.6201,4.633,4.6419,4.6512,4.6657,4.671,4.6852,4.6913,4.7003,4.7109,4.713,4.7229,4.7295,4.7403,4.7446,4.7594,4.7624,4.7655,4.7665,4.7653,4.7649,4.7697,4.7687,4.7685,4.7683,4.7682,4.7681,0,4.6339,4.6403,4.657,4.6689,4.6722,4.6823,4.6925,4.7016,4.707,4.7204,4.7238,4.7324,4.7452,4.7515,4.7675,4.7704,4.7871,4.7874,4.7835,4.7839,4.7922,4.7913,4.8184,4.8222,4.8019,4.8021,4.8022,0,4.645,4.655,4.6679,4.6751,4.6814,4.693,4.7007,4.7063,4.7142,4.727,4.7346,4.7475,4.7581,4.7784,4.7861,4.7983,4.7989,4.8075,4.8007,4.7992,4.799,4.7983,4.7993,4.8087,4.8089,4.8091,4.8092,0,4.6641,4.6668,4.6778,4.69,4.6991,4.709,4.7187,4.7245,4.7316,4.7404,4.7535,4.7617,4.7779,4.7907,4.8034,4.8097,4.8107,4.8113,4.8139,4.8128,4.8101,4.8116,4.7868,4.8106,4.8105,4.8104,4.8103,4.8102,4.6769,4.6858,4.6962,4.7084,4.7163,4.7253,4.7344,4.741,4.752,4.7656,4.7682,4.7821,4.7923,4.8095,4.8162,4.8271,4.8252,4.8291,4.8301,4.8309,4.8313,4.8083,4.8295,4.8294,4.8294,4.8294,4.8293,0,4.696,4.7028,4.714,4.7275,4.7371,4.7371,4.7478,4.7558,4.768,4.7775,4.7878,4.8028,4.8152,4.8237,4.8363,4.8433,4.8441,4.8464,4.846,4.8474,4.8323,4.8287,4.8456,4.8456,4.8456,4.8456,4.8456,4.8456,4.7071,4.7221,4.726,4.7449,4.7516,4.7652,4.7713,4.7796,4.7872,4.8038,4.8141,4.8196,4.8287,4.8419,4.8532,4.8554,4.8599,4.8623,4.8644,4.8502,4.8485,4.8468,4.8435,4.8632,4.8632,4.8786,4.8788,4.8789]}]]